Starlink 30381

operational
NORAD ID: 57785 Int'l Des: 2023-134 Owner: SPXS Country: US Constellation: starlink
LEOCIRCULAR

About Starlink 30381

Description loading...

Live Position

Loading 3D Globe...

Upcoming Passes

Altitude History

Altitude vs Time

uPlot chart will show altitude changes over time

Two-Line Element Set

1 57785U 23134Q 25306.30661372 .00001380 00000-0 11717-3 0 9991
2 57785 43.0031 169.2246 0001285 267.3272 92.7423 15.02537561120319
Epoch: Nov 2, 2025 • Age: 34 hours

Current Status

Altitude 558.4 km
Velocity 7.58 km/s
Sub-Earth Point 9.98°N, 23.48°E
Launch Date Sep 4, 2023
Age 2.1 years
Type internet

Technical Details

Classification Payload
Mass 730.00 kg
Dry Mass 700.00 kg
Total Mass 730.00 kg
Length 0.30 m
Diameter 4.10 m
Span 29.00 m
Shape Box + pan
Manufacturer SPXS
Bus Type Starlink V2M
Phase Status In Orbit
Owner/State SPXS/US

Large Constellations

Loading constellations...